Location: Whitewright
(33.5129°N, 96.3925°W)
Time: 06:03:25
(UTC+00:00)

Daily predictions for brighter satellites

Satellite Brightness Start Highest point End
(mag) Time Altitude Azimuth Time Altitude Azimuth Time Altitude Azimuth
Cosmos 1025 Rocket 3.1 12:03:13 10° S 12:07:33 87° E 12:11:55 10° N
Cosmos 2278 Rocket 3.9 12:07:18 12° W 12:07:40 12° W 12:09:46 10° WSW
Cosmos 1943 Rocket 4.0 12:09:39 10° W 12:09:39 10° W 12:09:48 10° W
Cosmos 1674 Rocket 3.7 12:09:13 10° SSW 12:13:31 53° W 12:17:51 10° N
Cosmos 1943 3.1 12:08:42 10° SSW 12:14:17 71° WNW 12:19:53 10° NNE
Cosmos 2297 4.0 12:09:38 10° NNW 12:15:17 71° ENE 12:20:52 10° SSE
USA 229 DEB 4.2 12:13:16 10° WSW 12:18:16 29° NW 12:23:45 10° N
USA 229 4.2 12:13:28 10° WSW 12:18:29 29° NW 12:23:58 10° N
Cosmos 1484 Rocket 2.5 12:15:08 10° N 12:18:36 58° WNW 12:22:02 10° SSW
Cosmos 1072 Rocket 4.5 12:13:45 10° N 12:19:54 83° W 12:26:06 10° S
BREEZE-M DEB (TANK) 2.5 12:17:41 10° WSW 12:20:05 38° NW 12:22:28 10° NE
Cosmos 2369 Rocket 2.4 12:14:28 10° NNW 12:20:12 82° ENE 12:25:54 10° SSE
Cosmos 1400 Rocket 2.5 12:16:46 10° NNW 12:20:25 71° W 12:24:00 10° S
Helios 1A Rocket 3.0 12:18:13 10° SSW 12:21:19 35° W 12:24:27 10° NNW
Cosmos 2221 Rocket 3.6 12:20:50 10° SSW 12:25:18 65° W 12:29:49 10° N
Lacrosse 4 Rocket 4.3 12:26:58 10° NE 12:27:26 10° NE 12:27:54 10° ENE
Cosmos 1812 3.5 12:27:14 10° NW 12:29:19 18° W 12:31:22 10° SW
Cosmos 371 Rocket 4.2 12:26:26 10° NW 12:30:33 28° W 12:34:39 10° SSW
Cosmos 968 Rocket 3.5 12:29:36 10° NNW 12:34:50 71° WSW 12:40:01 10° S
USA 215 3.7 23:36:28 10° ESE 23:42:31 42° NE 23:48:34 10° NNW
Helios 1A Rocket 4.3 23:45:03 10° ENE 23:46:50 14° E 23:48:36 10° SE
UNK 4.2 23:42:27 10° N 23:47:01 68° WNW 23:51:35 10° SSW
IGS 5A 3.6 23:45:13 10° S 23:49:10 77° WSW 23:53:10 10° NNW
SAR-Lupe-4 3.7 23:47:57 10° SSE 23:51:25 53° ENE 23:54:55 10° N
RESURS DK-1 4.2 23:54:02 10° NE 23:55:24 11° ENE 23:56:46 10° ENE
